[[{"header":{"parameterUnit":"m.s-1","parameterCategory":1,"la1":30.2991,"la2":30.254,"lo1":-89.0895,"lo2":-89.0444,"dy":0.0017,"dx":0.0017,"nx":28,"ny":28,"refTime":"2025-08-07T03:00:00:Z","depth":0,"parameterNumber":2,"parameterNumberName":"U-component_of_WINDS"},"data":[0,0,0,0,0,0,0,0,0,0,0,0,0,0,0,0,0,0,0,0,0,0,0,0,0,0,0,0,0,0,0,0,0,0,0,0,0,0,0,0,0,0,0,0,0,0,0,0,0,0,0,0,0,0,0,0,0,0,-1.587,-1.5869,0,-1.579,-1.5789,-1.5788,-1.5708,-1.5707,-1.5706,-1.5705,-1.5624,-1.5622,-1.5621,0,0,0,0,0,0,0,0,0,0,0,0,0,-1.595,-1.5949,-1.587,-1.5869,-1.5868,-1.579,-1.5789,-1.5788,-1.5708,-1.5707,-1.5706,-1.5704,-1.5624,-1.5623,-1.5621,0,0,0,0,0,0,0,0,0,0,0,0,0,-1.5898,-1.5949,-1.587,-1.5819,-1.5813,-1.5791,-1.5789,-1.5788,-1.5709,-1.5707,-1.5705,-1.5704,-1.5624,-1.5623,-1.5621,-1.5643,0,0,-1.5616,-1.5615,0,0,0,0,0,0,0,0,-1.5901,-1.5895,-1.5827,-1.5822,-1.5816,-1.5757,-1.5788,-1.5739,-1.5709,-1.5748,-1.5705,-1.5703,-1.5669,-1.5664,-1.5653,-1.5639,-1.5635,-1.5616,-1.5615,-1.5614,-1.5613,0,0,0,0,0,0,0,-1.5905,-1.5898,-1.5838,-1.5826,-1.5819,-1.5799,-1.579,-1.5778,-1.5719,-1.5745,-1.5739,-1.573,-1.5666,-1.5654,-1.565,-1.5634,-1.5616,-1.5614,-1.5613,-1.5612,-1.5633,-1.5634,0,0,0,0,0,0,-1.5916,-1.5901,-1.5841,-1.5836,-1.5855,-1.5799,-1.5788,-1.5778,-1.5719,-1.5708,-1.5732,-1.5727,-1.5658,-1.5652,-1.5647,-1.5668,-1.5614,-1.5612,-1.5611,-1.5631,-1.5633,-1.5635,0,0,0,0,0,0,-1.5918,-1.5912,-1.5844,-1.5867,-1.5857,-1.5799,-1.5788,-1.5777,-1.5765,-1.5709,-1.5698,-1.5731,-1.5657,-1.5649,-1.5644,-1.5664,-1.5611,-1.561,-1.5629,-1.5632,-1.5634,-1.571,0,0,0,0,0,0,-1.5921,-1.5913,-1.5921,-1.5868,-1.5856,-1.5843,-1.5789,-1.5777,-1.5763,-1.5755,-1.5705,-1.5696,-1.5655,-1.5647,-1.5642,-1.566,-1.5608,-1.5627,-1.563,-1.5633,-1.5706,-1.5715,-1.5723,0,0,0,0,0,-1.5924,-1.5946,-1.5922,-1.5915,-1.5865,-1.5844,-1.5838,-1.579,-1.5765,-1.5772,-1.5735,-1.5697,-1.5662,-1.5647,-1.5641,-1.5659,-1.5626,-1.5629,-1.5633,-1.5702,-1.5713,-1.5722,0,0,0,0,0,0,-1.6003,-1.5938,-1.5911,-1.5916,-1.5886,-1.5831,-1.5839,-1.5804,-1.5781,-1.5775,-1.5718,-1.5707,-1.5708,-1.5683,-1.5667,-1.5676,-1.5638,-1.5641,-1.5693,-1.5703,-1.5712,-1.5718,-1.5607,0,0,0,0,0,-1.6021,-1.6011,-1.5954,-1.5964,-1.595,-1.5898,-1.5887,-1.5853,-1.582,-1.5807,-1.577,-1.5739,-1.5721,-1.5711,-1.5691,-1.5701,-1.5689,-1.571,-1.5719,-1.5726,-1.5729,-1.5732,-1.574,-1.5646,-1.5646,-1.5646,0,0,-1.6059,-1.6022,-1.6018,-1.5979,-1.5952,-1.5942,-1.5888,-1.5879,-1.587,-1.5805,-1.5798,-1.577,-1.5732,-1.5734,-1.5733,-1.5713,-1.5752,-1.5731,-1.5737,-1.5736,-1.5736,-1.5745,-1.5753,-1.5649,-1.5648,-1.5648,0,0,-1.6121,-1.6093,-1.6097,-1.6071,-1.6031,-1.5995,-1.5996,-1.5946,-1.5924,-1.5916,-1.5867,-1.5855,-1.5826,-1.58,-1.5783,-1.5834,-1.5798,-1.5829,-1.5874,-1.5877,-1.5885,-1.5891,-1.5909,-1.5916,-1.5832,-1.5833,-1.5833,0,-1.6173,-1.6156,-1.6104,-1.6098,-1.6082,-1.6022,-1.6026,-1.6003,-1.5958,-1.5948,-1.5926,-1.5886,-1.5856,-1.5852,-1.5864,-1.5852,-1.5851,-1.5835,-1.5888,-1.5894,-1.5899,-1.5915,-1.5922,-1.5837,-1.5836,-1.5836,-1.5835,0,-1.6221,-1.6209,-1.6218,-1.6176,-1.616,-1.616,-1.6107,-1.6098,-1.6065,-1.6031,-1.6023,-1.5984,-1.5955,-1.5951,-1.5919,-1.5941,-1.593,-1.5899,-1.586,-1.5913,-1.5927,-1.5933,-1.5843,-1.5841,-1.584,-1.5839,0,0,-1.6332,-1.6261,-1.6265,-1.6245,-1.6195,-1.6185,-1.6181,-1.6152,-1.6145,-1.6115,-1.611,-1.6085,-1.6056,-1.6037,-1.6001,-1.6003,-1.6046,-1.5971,-1.5969,-1.5986,-1.6067,-1.6091,-1.6099,-1.6021,-1.6022,-1.6022,-1.607,0,-1.6387,-1.6376,-1.6329,-1.6332,-1.632,-1.6262,-1.6258,-1.6227,-1.6195,-1.618,-1.6144,-1.6128,-1.609,-1.6078,-1.6078,-1.6041,-1.6061,-1.6036,-1.6015,-1.6015,-1.6027,-1.6107,-1.6133,-1.618,-1.6076,-1.6076,-1.6077,0,-1.6449,-1.6423,-1.6425,-1.6374,-1.6368,-1.6365,-1.6334,-1.6321,-1.6284,-1.626,-1.6238,-1.6198,-1.6189,-1.6152,-1.6139,-1.6124,-1.6112,-1.6092,-1.6093,-1.6089,-1.605,-1.6106,-1.6194,-1.6201,-1.6085,-1.6085,-1.6084,0,-1.653,-1.6496,-1.6492,-1.6477,-1.6418,-1.6417,-1.6392,-1.6353,-1.6339,-1.6312,-1.6301,-1.6274,-1.6259,-1.6238,-1.6191,-1.6168,-1.6183,-1.6142,-1.6163,-1.6164,-1.6169,-1.617,-1.6257,-1.6161,-1.6161,-1.6161,-1.6161,0,-1.6596,-1.6599,-1.6528,-1.6526,-1.6527,-1.6472,-1.6476,-1.6445,-1.6411,-1.6401,-1.6349,-1.6341,-1.6279,-1.6264,-1.6226,-1.6221,-1.6215,-1.6195,-1.6185,-1.62,-1.6203,-1.6192,-1.6188,-1.6163,-1.6162,-1.6162,-1.6162,0,-1.6687,-1.6639,-1.6632,-1.6576,-1.6562,-1.6566,-1.6517,-1.6513,-1.6477,-1.6466,-1.646,-1.6404,-1.6383,-1.6333,-1.6299,-1.6274,-1.6279,-1.626,-1.6291,-1.6285,-1.6308,-1.6307,-1.6392,-1.64,-1.63,-1.6301,-1.6302,0,-1.6732,-1.6734,-1.6678,-1.6668,-1.6645,-1.6629,-1.6614,-1.6559,-1.6545,-1.6502,-1.6502,-1.6477,-1.6454,-1.6424,-1.638,-1.6353,-1.6334,-1.6365,-1.633,-1.6344,-1.6334,-1.6335,-1.6335,-1.6374,-1.6375,-1.6376,-1.6377,0,-1.6818,-1.6794,-1.6774,-1.6745,-1.6728,-1.6703,-1.6675,-1.6669,-1.6607,-1.6594,-1.6572,-1.6554,-1.6519,-1.6495,-1.6461,-1.6435,-1.6396,-1.6388,-1.6392,-1.6407,-1.6425,-1.6415,-1.6313,-1.6387,-1.6386,-1.6385,-1.6385,-1.6384,-1.6887,-1.6885,-1.6845,-1.6824,-1.6797,-1.6772,-1.6764,-1.6727,-1.6708,-1.6675,-1.6644,-1.6625,-1.6586,-1.6537,-1.6513,-1.6497,-1.6477,-1.6482,-1.6483,-1.6485,-1.6492,-1.6427,-1.649,-1.649,-1.649,-1.6489,-1.6489,0,-1.697,-1.6941,-1.6922,-1.6884,-1.6867,-1.6831,-1.6798,-1.6786,-1.677,-1.6737,-1.6715,-1.669,-1.6665,-1.6619,-1.659,-1.6586,-1.6567,-1.658,-1.658,-1.6575,-1.6511,-1.6511,-1.6596,-1.6596,-1.6596,-1.6596,-1.6596,-1.6596,-1.7011,-1.7005,-1.6976,-1.6957,-1.6927,-1.6908,-1.6892,-1.6868,-1.6841,-1.6815,-1.6794,-1.6764,-1.6725,-1.6693,-1.6669,-1.6656,-1.6648,-1.6667,-1.6648,-1.6589,-1.6579,-1.657,-1.6569,-1.6665,-1.6665,-1.6713,-1.6713,-1.6713]},{"header":{"parameterUnit":"m.s-1","parameterCategory":1,"la1":30.2991,"la2":30.254,"lo1":-89.0895,"lo2":-89.0444,"dy":0.0017,"dx":0.0017,"nx":28,"ny":28,"refTime":"2025-08-07T03:00:00:Z","depth":0,"parameterNumber":3,"parameterNumberName":"V-component_of_WINDS"},"data":[0,0,0,0,0,0,0,0,0,0,0,0,0,0,0,0,0,0,0,0,0,0,0,0,0,0,0,0,0,0,0,0,0,0,0,0,0,0,0,0,0,0,0,0,0,0,0,0,0,0,0,0,0,0,0,0,0,0,-0.6763,-0.6764,0,-0.6808,-0.6808,-0.6809,-0.6796,-0.6795,-0.6794,-0.6794,-0.684,-0.6842,-0.6844,0,0,0,0,0,0,0,0,0,0,0,0,0,-0.6667,-0.6669,-0.6763,-0.6764,-0.6764,-0.6808,-0.6808,-0.6809,-0.6796,-0.6795,-0.6794,-0.6793,-0.6839,-0.6841,-0.6844,0,0,0,0,0,0,0,0,0,0,0,0,0,-0.671,-0.667,-0.6763,-0.6763,-0.6764,-0.6808,-0.6808,-0.6809,-0.6797,-0.6795,-0.6794,-0.6793,-0.6838,-0.6841,-0.6844,-0.6891,0,0,-0.6854,-0.6855,0,0,0,0,0,0,0,0,-0.6708,-0.6714,-0.6763,-0.6763,-0.6764,-0.6795,-0.6791,-0.6836,-0.6797,-0.6784,-0.6794,-0.6792,-0.6826,-0.683,-0.6841,-0.6893,-0.6895,-0.6854,-0.6856,-0.6857,-0.6858,0,0,0,0,0,0,0,-0.6705,-0.6712,-0.6781,-0.6763,-0.6764,-0.6761,-0.6766,-0.68,-0.6812,-0.6785,-0.6784,-0.679,-0.6826,-0.6838,-0.6842,-0.6895,-0.6854,-0.6857,-0.6859,-0.686,-0.6989,-0.699,0,0,0,0,0,0,-0.6701,-0.6709,-0.6779,-0.6782,-0.6732,-0.6764,-0.6769,-0.6786,-0.6812,-0.6814,-0.6791,-0.6789,-0.6834,-0.6839,-0.6844,-0.6902,-0.6857,-0.686,-0.6862,-0.6987,-0.6989,-0.6991,0,0,0,0,0,0,-0.6699,-0.6708,-0.6777,-0.6745,-0.6754,-0.6767,-0.6787,-0.6788,-0.68,-0.6816,-0.6818,-0.6801,-0.6833,-0.6839,-0.6879,-0.6903,-0.6861,-0.6864,-0.6985,-0.6988,-0.699,-0.7017,0,0,0,0,0,0,-0.6697,-0.6707,-0.6725,-0.6746,-0.6756,-0.6812,-0.6788,-0.679,-0.6806,-0.6804,-0.6826,-0.6829,-0.6832,-0.6875,-0.6883,-0.6907,-0.6867,-0.6983,-0.6986,-0.6989,-0.7014,-0.702,-0.7025,0,0,0,0,0,-0.6693,-0.673,-0.6726,-0.6734,-0.6778,-0.6814,-0.682,-0.6823,-0.6808,-0.6826,-0.6836,-0.6828,-0.6899,-0.6879,-0.6888,-0.6913,-0.6982,-0.6986,-0.6989,-0.7011,-0.7019,-0.7025,0,0,0,0,0,0,-0.6711,-0.6733,-0.6728,-0.6773,-0.6792,-0.6812,-0.6835,-0.683,-0.6853,-0.685,-0.6853,-0.6858,-0.69,-0.691,-0.6888,-0.696,-0.6938,-0.6944,-0.6952,-0.6959,-0.6964,-0.6962,-0.6869,0,0,0,0,0,-0.672,-0.6747,-0.6765,-0.6803,-0.6812,-0.6822,-0.6837,-0.6838,-0.6858,-0.6865,-0.6878,-0.6898,-0.6924,-0.6942,-0.6967,-0.7014,-0.702,-0.7036,-0.7041,-0.7045,-0.7051,-0.7078,-0.7086,-0.7002,-0.7002,-0.7002,0,0,-0.674,-0.6755,-0.6772,-0.6807,-0.6821,-0.685,-0.6829,-0.6859,-0.6881,-0.687,-0.6909,-0.6919,-0.6941,-0.6985,-0.7005,-0.6995,-0.7075,-0.705,-0.7053,-0.7057,-0.7083,-0.7091,-0.7098,-0.7005,-0.7004,-0.7004,0,0,-0.679,-0.6804,-0.6838,-0.6853,-0.6875,-0.6881,-0.6889,-0.691,-0.6917,-0.6956,-0.6949,-0.6974,-0.7019,-0.7035,-0.705,-0.7106,-0.71,-0.7114,-0.7143,-0.717,-0.7177,-0.7183,-0.7205,-0.7213,-0.7119,-0.7119,-0.7119,0,-0.6812,-0.6855,-0.6856,-0.6888,-0.6904,-0.6895,-0.693,-0.6944,-0.6974,-0.6985,-0.6973,-0.703,-0.7044,-0.7093,-0.7107,-0.7118,-0.7128,-0.7113,-0.7175,-0.7181,-0.7187,-0.7208,-0.7216,-0.712,-0.712,-0.712,-0.712,0,-0.6881,-0.691,-0.6935,-0.6965,-0.6983,-0.7016,-0.7023,-0.7041,-0.704,-0.7048,-0.7088,-0.7104,-0.7133,-0.7144,-0.7143,-0.7193,-0.7186,-0.7174,-0.7153,-0.7197,-0.7217,-0.7225,-0.7123,-0.7122,-0.7122,-0.7121,0,0,-0.6946,-0.6975,-0.6985,-0.6998,-0.7022,-0.7045,-0.7078,-0.7106,-0.7123,-0.7143,-0.7172,-0.721,-0.72,-0.7216,-0.7216,-0.7239,-0.7285,-0.7225,-0.7225,-0.7237,-0.7344,-0.7355,-0.7364,-0.728,-0.7282,-0.7283,-0.7343,0,-0.7,-0.7059,-0.7061,-0.7114,-0.7143,-0.7134,-0.7163,-0.7181,-0.7189,-0.7214,-0.7222,-0.725,-0.7233,-0.7243,-0.7265,-0.7275,-0.7307,-0.727,-0.7309,-0.731,-0.7306,-0.7374,-0.7386,-0.7441,-0.735,-0.7352,-0.7353,0,-0.7072,-0.7095,-0.7152,-0.7173,-0.7185,-0.7211,-0.7238,-0.7261,-0.7281,-0.7285,-0.7303,-0.73,-0.7334,-0.731,-0.7357,-0.7332,-0.7347,-0.7355,-0.7357,-0.7363,-0.7336,-0.7384,-0.7459,-0.7468,-0.7365,-0.7364,-0.7363,0,-0.7117,-0.7162,-0.7202,-0.7214,-0.7238,-0.7257,-0.7268,-0.7287,-0.7304,-0.7327,-0.7339,-0.7365,-0.738,-0.7401,-0.7405,-0.7387,-0.7453,-0.7429,-0.7459,-0.7459,-0.7476,-0.7475,-0.7556,-0.7481,-0.7481,-0.7481,-0.748,0,-0.7179,-0.7215,-0.7223,-0.7248,-0.7288,-0.7289,-0.7329,-0.7338,-0.7355,-0.7382,-0.7375,-0.7401,-0.7404,-0.743,-0.7433,-0.7473,-0.7479,-0.7484,-0.7485,-0.7487,-0.7486,-0.7499,-0.7496,-0.7483,-0.7482,-0.7482,-0.7482,0,-0.7237,-0.7244,-0.7287,-0.7307,-0.7313,-0.7342,-0.7359,-0.7383,-0.7389,-0.7424,-0.7432,-0.7442,-0.7473,-0.7478,-0.7514,-0.7516,-0.7565,-0.756,-0.7559,-0.7559,-0.759,-0.7588,-0.7684,-0.7698,-0.7611,-0.7612,-0.7612,0,-0.7278,-0.7305,-0.7328,-0.7346,-0.7358,-0.7387,-0.7405,-0.7407,-0.7426,-0.7451,-0.7472,-0.7502,-0.7527,-0.7576,-0.7587,-0.7614,-0.7612,-0.7644,-0.7616,-0.7617,-0.7616,-0.7615,-0.7619,-0.765,-0.7651,-0.7652,-0.7652,0,-0.735,-0.7352,-0.7378,-0.7406,-0.7428,-0.7449,-0.747,-0.7485,-0.749,-0.7511,-0.7543,-0.7562,-0.7599,-0.7629,-0.7657,-0.7668,-0.7662,-0.7661,-0.767,-0.7673,-0.7672,-0.7675,-0.7576,-0.7659,-0.7658,-0.7658,-0.7658,-0.7657,-0.7403,-0.7427,-0.7448,-0.7477,-0.7493,-0.7513,-0.7537,-0.7546,-0.7573,-0.7604,-0.7603,-0.7638,-0.7658,-0.7694,-0.7707,-0.7735,-0.7725,-0.7737,-0.774,-0.7744,-0.7748,-0.7665,-0.7739,-0.7739,-0.7739,-0.7739,-0.7738,0,-0.7477,-0.749,-0.7517,-0.7546,-0.757,-0.7561,-0.7583,-0.7604,-0.7635,-0.7654,-0.7678,-0.7715,-0.7744,-0.7757,-0.7786,-0.7806,-0.7804,-0.7813,-0.7813,-0.7817,-0.7754,-0.7745,-0.7815,-0.7815,-0.7815,-0.7815,-0.7815,-0.7815,-0.7519,-0.7561,-0.7565,-0.7615,-0.7627,-0.7662,-0.7676,-0.7694,-0.7709,-0.7751,-0.7776,-0.7784,-0.78,-0.783,-0.7857,-0.786,-0.7872,-0.7884,-0.7886,-0.7828,-0.7821,-0.7813,-0.7805,-0.7886,-0.7886,-0.7946,-0.7947,-0.7947]}]]